contact:dominique.lefevre@mio.osupytheas.fr, maurice.libes@osupytheas.fr, didier.mallarino@osupytheas.fr
Project:EMSO http://www.emso-fr.org/EMSO-France
Depth: 2436.0 m
Title:EMSO Ligure Ouest : Data MII capteur AQUADOPP
Date,Latitude,Longitude,X_East,Y_North,Z_Up,Amplitude_X,Amplitude_Y,Amplitude_Z,Batterie,SoundSpeed,Heading,Pitch,Roll,Pressure,TIS,Speed,Direction
, degrees North, degrees East, m.s-1, m.s-1,m.s-1, 1, 1, 1, Volt, m.s-1, degree, degree, degree, dbar, degree_C, m.s-1, degree
2023-01-07T00:04:03,42.805,6.029,-0.04,0.016,-0.005,99.0,100.0,100.0,13.3,1505.2,333.8,-0.7,1.8,2471.125,13.29,0.043,291.8
2023-01-07T00:07:03,42.805,6.029,-0.019,-0.007,-0.001,100.0,101.0,100.0,13.4,1505.2,337.0,-0.8,1.8,2471.157,13.29,0.02,249.8
2023-01-07T00:10:03,42.805,6.029,0.002,-0.001,-0.03,99.0,100.0,101.0,13.4,1505.2,327.3,-0.7,1.8,2471.079,13.29,0.002,116.6
2023-01-07T00:13:03,42.805,6.029,-0.013,-0.002,-0.007,98.0,101.0,100.0,13.3,1505.2,323.5,-0.7,1.8,2471.111,13.29,0.013,261.3
2023-01-07T00:16:03,42.805,6.029,-0.024,-0.001,-0.003,99.0,101.0,100.0,13.3,1505.2,327.9,-0.8,1.8,2471.094,13.29,0.024,267.6
2023-01-07T00:19:03,42.805,6.029,-0.018,0.028,0.013,100.0,101.0,100.0,13.4,1505.2,327.3,-0.7,1.8,2471.152,13.29,0.033,327.3
2023-01-07T00:22:03,42.805,6.029,-0.03,-0.01,-0.042,100.0,101.0,100.0,13.4,1505.2,321.3,-0.8,1.8,2471.076,13.29,0.031,251.6
2023-01-07T00:25:03,42.805,6.029,0.012,-0.008,-0.009,99.0,102.0,100.0,13.4,1505.2,332.2,-0.8,1.8,2471.076,13.29,0.014,123.7
2023-01-07T00:28:03,42.805,6.029,-0.007,0.016,0.015,101.0,100.0,101.0,13.4,1505.2,319.6,-0.8,1.8,2471.06,13.29,0.017,336.4
2023-01-07T00:31:03,42.805,6.029,-0.016,0.01,0.025,97.0,101.0,101.0,13.3,1505.2,318.5,-0.7,1.8,2471.054,13.29,0.018,302.0
2023-01-07T00:34:03,42.805,6.029,-0.036,0.008,-0.03,100.0,101.0,99.0,13.4,1505.2,320.9,-0.8,1.8,2471.118,13.29,0.036,282.5
2023-01-07T00:37:03,42.805,6.029,-0.037,0.012,0.002,99.0,100.0,100.0,13.3,1505.2,326.7,-0.7,1.8,2471.089,13.29,0.038,288.0
2023-01-07T00:40:03,42.805,6.029,-0.008,0.004,-0.003,99.0,100.0,100.0,13.4,1505.2,331.3,-0.8,1.8,2471.117,13.29,0.008,296.6
2023-01-07T00:43:03,42.805,6.029,-0.023,0.026,0.003,100.0,100.0,101.0,13.3,1505.2,320.9,-0.8,1.8,2471.074,13.29,0.034,318.5
2023-01-07T00:46:03,42.805,6.029,-0.012,-0.004,-0.028,100.0,100.0,100.0,13.4,1505.2,322.9,-0.8,1.9,2471.042,13.29,0.012,251.6
2023-01-07T00:49:03,42.805,6.029,-0.018,-0.005,-0.011,100.0,100.0,101.0,13.4,1505.2,323.7,-0.8,1.8,2471.033,13.29,0.018,254.5
2023-01-07T00:52:03,42.805,6.029,0.024,-0.016,0.008,100.0,100.0,100.0,13.4,1505.2,327.8,-0.8,1.8,2471.078,13.29,0.028,123.7
2023-01-07T00:55:03,42.805,6.029,-0.003,0.031,0.058,99.0,100.0,100.0,13.4,1505.2,316.0,-0.8,1.8,2471.016,13.29,0.031,354.5
2023-01-07T00:58:03,42.805,6.029,-0.006,-0.004,-0.03,99.0,100.0,100.0,13.4,1505.2,325.6,-0.8,1.8,2471.086,13.29,0.007,236.3
2023-01-07T01:04:03,42.805,6.029,-0.003,-0.005,0.059,101.0,101.0,102.0,13.4,1505.2,337.5,-0.8,1.8,2471.098,13.29,0.005,211.0
2023-01-07T01:07:03,42.805,6.029,-0.026,0.004,0.0,100.0,100.0,100.0,13.3,1505.2,320.9,-0.7,1.8,2471.114,13.29,0.026,278.7
2023-01-07T01:10:03,42.805,6.029,0.02,0.013,0.063,100.0,99.0,101.0,13.3,1505.2,315.5,-0.8,1.8,2471.097,13.29,0.023,57.0
2023-01-07T01:13:03,42.805,6.029,0.041,0.009,0.047,98.0,101.0,101.0,13.3,1505.2,326.3,-0.8,1.8,2471.067,13.29,0.041,77.6
2023-01-07T01:16:03,42.805,6.029,0.007,-0.007,0.006,99.0,100.0,100.0,13.4,1505.2,328.7,-0.7,1.8,2471.086,13.29,0.009,135.0
2023-01-07T01:19:03,42.805,6.029,0.006,-0.005,0.002,98.0,99.0,101.0,13.4,1505.2,319.0,-0.7,1.9,2471.072,13.29,0.007,129.8
2023-01-07T01:22:03,42.805,6.029,0.011,0.017,0.053,100.0,100.0,99.0,13.4,1505.2,331.4,-0.8,1.8,2471.076,13.29,0.02,32.9
2023-01-07T01:25:03,42.805,6.029,-0.011,0.003,-0.015,100.0,100.0,101.0,13.4,1505.2,317.7,-0.8,1.8,2471.066,13.29,0.011,285.3
2023-01-07T01:28:03,42.805,6.029,0.006,-0.008,0.011,98.0,100.0,101.0,13.4,1505.2,336.4,-0.8,1.8,2471.113,13.29,0.01,143.1
2023-01-07T01:31:03,42.805,6.029,-0.01,0.009,0.012,99.0,101.0,100.0,13.4,1505.2,316.9,-0.7,1.8,2471.106,13.29,0.013,312.0
2023-01-07T01:34:03,42.805,6.029,-0.006,0.003,-0.023,98.0,102.0,100.0,13.4,1505.2,326.3,-0.8,1.8,2471.108,13.29,0.006,296.6
2023-01-07T01:37:03,42.805,6.029,-0.028,0.015,0.005,98.0,101.0,100.0,13.4,1505.2,322.3,-0.8,1.8,2471.092,13.29,0.031,298.2
2023-01-07T01:40:03,42.805,6.029,-0.016,0.012,0.011,100.0,100.0,98.0,13.4,1505.2,320.8,-0.8,1.8,2471.014,13.29,0.02,306.9
2023-01-07T01:43:03,42.805,6.029,0.003,0.026,0.037,100.0,98.0,100.0,13.4,1505.2,334.4,-0.8,1.8,2471.078,13.29,0.026,6.6
2023-01-07T01:46:03,42.805,6.029,-0.015,-0.021,-0.087,101.0,98.0,100.0,13.4,1505.2,329.1,-0.8,1.8,2471.063,13.29,0.025,215.5
2023-01-07T01:49:03,42.805,6.029,0.005,0.029,0.057,101.0,99.0,100.0,13.4,1505.2,330.2,-0.8,1.8,2471.068,13.29,0.029,9.8
2023-01-07T01:52:03,42.805,6.029,-0.027,0.018,-0.005,97.0,102.0,101.0,13.4,1505.2,323.4,-0.8,1.8,2471.109,13.29,0.032,303.7
2023-01-07T01:55:03,42.805,6.029,-0.041,0.039,0.038,99.0,100.0,99.0,13.4,1505.2,320.6,-0.8,1.8,2471.042,13.29,0.056,313.6
2023-01-07T01:58:03,42.805,6.029,-0.02,0.001,-0.037,98.0,99.0,100.0,13.4,1505.2,330.4,-0.8,1.8,2471.115,13.29,0.02,272.9
2023-01-07T02:04:03,42.805,6.029,-0.001,0.012,0.007,101.0,97.0,100.0,13.4,1505.2,321.5,-0.8,1.8,2471.114,13.29,0.012,355.2
2023-01-07T02:07:03,42.805,6.029,0.019,-0.013,-0.024,99.0,102.0,98.0,13.3,1505.2,331.0,-0.8,1.9,2471.11,13.29,0.023,124.4
2023-01-07T02:10:03,42.805,6.029,0.011,-0.01,-0.018,99.0,100.0,100.0,13.4,1505.2,324.9,-0.8,1.8,2471.091,13.29,0.014,132.3
2023-01-07T02:13:03,42.805,6.029,-0.028,0.015,-0.013,100.0,100.0,99.0,13.4,1505.2,332.1,-0.8,1.8,2471.097,13.29,0.031,298.2
2023-01-07T02:16:03,42.805,6.029,-0.034,0.004,-0.024,100.0,100.0,99.0,13.3,1505.2,325.4,-0.7,1.8,2471.098,13.29,0.034,276.7
2023-01-07T02:19:03,42.805,6.029,-0.002,0.0,-0.006,99.0,100.0,100.0,13.3,1505.2,319.9,-0.8,1.8,2471.094,13.29,0.002,270.0
2023-01-07T02:22:03,42.805,6.029,-0.012,0.006,0.003,100.0,101.0,100.0,13.3,1505.2,321.3,-0.7,1.8,2471.113,13.29,0.013,296.6
2023-01-07T02:25:03,42.805,6.029,-0.02,0.02,0.007,100.0,101.0,98.0,13.4,1505.2,332.3,-0.7,1.8,2471.1,13.29,0.028,315.0
2023-01-07T02:28:03,42.805,6.029,0.001,-0.011,-0.015,99.0,100.0,100.0,13.4,1505.2,332.6,-0.7,1.8,2471.119,13.29,0.011,174.8
2023-01-07T02:31:03,42.805,6.029,0.007,0.003,0.008,98.0,100.0,101.0,13.3,1505.2,316.5,-0.8,1.8,2471.064,13.29,0.007,66.8
2023-01-07T02:34:03,42.805,6.029,-0.011,-0.012,-0.027,98.0,102.0,99.0,13.4,1505.2,325.5,-0.7,1.8,2471.07,13.29,0.016,222.5
2023-01-07T02:37:03,42.805,6.029,0.011,0.011,0.019,100.0,100.0,100.0,13.3,1505.2,329.9,-0.8,1.8,2471.049,13.29,0.015,45.0
2023-01-07T02:40:03,42.805,6.029,0.011,-0.007,-0.028,99.0,100.0,100.0,13.4,1505.2,331.5,-0.7,1.8,2471.114,13.29,0.013,122.5
2023-01-07T02:43:03,42.805,6.029,-0.022,0.007,0.007,97.0,101.0,100.0,13.3,1505.2,337.0,-0.8,1.8,2471.072,13.29,0.023,287.6
2023-01-07T02:46:03,42.805,6.029,-0.025,0.014,-0.002,100.0,100.0,99.0,13.3,1505.2,318.0,-0.8,1.8,2471.087,13.29,0.028,299.3
2023-01-07T02:49:03,42.805,6.029,-0.032,0.005,-0.003,100.0,100.0,100.0,13.4,1505.2,335.8,-0.8,1.8,2471.097,13.29,0.032,278.9
2023-01-07T02:52:03,42.805,6.029,-0.014,0.011,0.021,100.0,100.0,99.0,13.3,1505.2,328.2,-0.8,1.8,2471.05,13.29,0.017,308.2
2023-01-07T02:55:03,42.805,6.029,-0.003,0.007,-0.008,100.0,100.0,100.0,13.4,1505.2,329.8,-0.8,1.8,2471.1,13.29,0.007,336.8
2023-01-07T02:58:03,42.805,6.029,0.001,-0.029,-0.053,99.0,99.0,100.0,13.4,1505.2,327.0,-0.8,1.8,2471.09,13.29,0.029,178.0
2023-01-07T03:04:03,42.805,6.029,0.001,0.0,0.015,99.0,102.0,100.0,13.3,1505.2,331.5,-0.8,1.8,2471.15,13.29,0.001,90.0
2023-01-07T03:07:03,42.805,6.029,-0.001,0.006,0.004,101.0,99.0,100.0,13.3,1505.2,326.9,-0.8,1.8,2471.142,13.29,0.006,350.5
2023-01-07T03:10:03,42.805,6.029,-0.004,-0.025,-0.035,98.0,100.0,101.0,13.4,1505.2,332.1,-0.8,1.8,2471.161,13.29,0.025,189.1
2023-01-07T03:13:03,42.805,6.029,0.002,-0.007,-0.051,99.0,100.0,100.0,13.3,1505.2,327.2,-0.8,1.8,2471.119,13.29,0.007,164.1
2023-01-07T03:16:03,42.805,6.029,-0.018,-0.003,-0.011,100.0,102.0,100.0,13.4,1505.2,325.4,-0.8,1.8,2471.148,13.29,0.018,260.5
2023-01-07T03:19:03,42.805,6.029,-0.004,0.003,-0.012,99.0,98.0,101.0,13.4,1505.2,329.6,-0.7,1.8,2471.093,13.29,0.005,306.9
2023-01-07T03:22:03,42.805,6.029,0.023,-0.008,-0.005,98.0,100.0,100.0,13.4,1505.2,319.9,-0.8,1.8,2471.158,13.29,0.024,109.2
2023-01-07T03:25:03,42.805,6.029,-0.013,-0.015,-0.03,98.0,100.0,100.0,13.4,1505.2,326.7,-0.7,1.8,2471.101,13.29,0.019,220.9
2023-01-07T03:28:03,42.805,6.029,-0.031,0.021,0.004,100.0,99.0,99.0,13.4,1505.2,331.5,-0.8,1.8,2471.14,13.29,0.037,304.1
2023-01-07T03:31:03,42.805,6.029,-0.007,-0.006,0.019,101.0,97.0,100.0,13.4,1505.2,321.9,-0.8,1.8,2471.103,13.29,0.009,229.4
2023-01-07T03:34:03,42.805,6.029,-0.011,0.017,0.013,100.0,100.0,100.0,13.4,1505.2,325.0,-0.7,1.9,2471.139,13.29,0.02,327.1
2023-01-07T03:37:03,42.805,6.029,0.024,0.025,0.026,99.0,100.0,100.0,13.4,1505.2,316.0,-0.8,1.8,2471.123,13.29,0.034,43.8
2023-01-07T03:40:03,42.805,6.029,-0.018,-0.006,-0.06,101.0,99.0,99.0,13.4,1505.2,330.8,-0.8,1.8,2471.117,13.29,0.018,251.6
2023-01-07T03:43:03,42.805,6.029,0.0,-0.001,0.026,99.0,101.0,100.0,13.3,1505.2,330.2,-0.7,1.8,2471.161,13.29,0.001,180.0
2023-01-07T03:46:03,42.805,6.029,-0.004,-0.007,-0.014,100.0,100.0,100.0,13.4,1505.2,329.4,-0.8,1.8,2471.12,13.29,0.008,209.7
2023-01-07T03:49:03,42.805,6.029,0.003,-0.016,-0.019,99.0,100.0,101.0,13.4,1505.2,330.5,-0.7,1.8,2471.136,13.29,0.016,169.4
2023-01-07T03:52:03,42.805,6.029,0.003,0.019,0.029,100.0,99.0,100.0,13.4,1505.2,335.6,-0.7,1.8,2471.132,13.29,0.019,9.0
2023-01-07T03:55:03,42.805,6.029,-0.012,0.019,0.013,101.0,101.0,100.0,13.4,1505.2,329.1,-0.8,1.8,2471.139,13.29,0.022,327.7
2023-01-07T03:58:03,42.805,6.029,-0.01,0.004,-0.009,101.0,99.0,100.0,13.4,1505.2,321.2,-0.8,1.8,2471.144,13.29,0.01,291.8
2023-01-07T04:04:03,42.805,6.029,0.016,0.002,-0.026,100.0,100.0,101.0,13.4,1505.2,331.5,-0.8,1.8,2471.169,13.29,0.016,82.9
2023-01-07T04:07:03,42.805,6.029,-0.033,-0.02,-0.023,97.0,99.0,101.0,13.3,1505.2,317.5,-0.8,1.8,2471.163,13.29,0.038,238.8
2023-01-07T04:10:03,42.805,6.029,-0.021,0.027,0.003,99.0,99.0,101.0,13.3,1505.2,337.5,-0.8,1.8,2471.188,13.29,0.034,322.1
2023-01-07T04:13:03,42.805,6.029,-0.019,-0.016,-0.049,101.0,100.0,100.0,13.4,1505.2,322.9,-0.8,1.8,2471.181,13.29,0.024,229.9
2023-01-07T04:16:03,42.805,6.029,-0.009,0.026,0.006,98.0,102.0,101.0,13.4,1505.2,327.9,-0.8,1.8,2471.19,13.29,0.027,340.9
2023-01-07T04:19:03,42.805,6.029,-0.018,-0.006,-0.034,100.0,100.0,101.0,13.3,1505.2,326.9,-0.8,1.8,2471.177,13.29,0.018,251.6
2023-01-07T04:22:03,42.805,6.029,-0.015,0.009,-0.003,100.0,101.0,100.0,13.4,1505.2,328.7,-0.8,1.8,2471.164,13.29,0.017,301.0
2023-01-07T04:25:03,42.805,6.029,-0.002,0.0,-0.03,99.0,100.0,101.0,13.4,1505.2,335.8,-0.8,1.8,2471.171,13.3,0.002,270.0
2023-01-07T04:28:03,42.805,6.029,0.009,-0.004,-0.015,100.0,100.0,100.0,13.4,1505.2,327.5,-0.8,1.8,2471.149,13.29,0.009,114.0
2023-01-07T04:31:03,42.805,6.029,0.0,0.021,0.008,98.0,100.0,101.0,13.4,1505.2,328.2,-0.7,1.8,2471.156,13.29,0.021,0.0
2023-01-07T04:34:03,42.805,6.029,0.011,-0.014,-0.022,99.0,99.0,100.0,13.4,1505.2,333.8,-0.8,1.8,2471.214,13.29,0.017,141.8
2023-01-07T04:37:03,42.805,6.029,0.0,-0.007,-0.032,99.0,99.0,101.0,13.3,1505.2,315.0,-0.8,1.8,2471.21,13.29,0.007,180.0
2023-01-07T04:40:03,42.805,6.029,0.0,-0.007,-0.017,99.0,99.0,100.0,13.4,1505.2,330.6,-0.7,1.8,2471.214,13.29,0.007,180.0
2023-01-07T04:43:03,42.805,6.029,0.011,-0.016,-0.006,100.0,100.0,100.0,13.4,1505.2,320.4,-0.8,1.8,2471.183,13.29,0.019,145.5
2023-01-07T04:46:03,42.805,6.029,-0.008,0.005,-0.009,100.0,100.0,99.0,13.4,1505.2,334.2,-0.8,1.8,2471.208,13.29,0.009,302.0
2023-01-07T04:49:03,42.805,6.029,-0.037,-0.006,-0.04,99.0,98.0,102.0,13.4,1505.2,330.7,-0.8,1.9,2471.231,13.29,0.037,260.8
2023-01-07T04:52:03,42.805,6.029,-0.022,-0.009,-0.017,100.0,98.0,100.0,13.4,1505.2,330.2,-0.8,1.8,2471.172,13.29,0.023,247.8
2023-01-07T04:55:03,42.805,6.029,-0.013,0.017,-0.02,99.0,99.0,100.0,13.4,1505.2,326.5,-0.8,1.8,2471.209,13.29,0.021,322.6
2023-01-07T04:58:03,42.805,6.029,0.025,0.015,0.045,99.0,99.0,100.0,13.3,1505.2,318.5,-0.8,1.8,2471.207,13.29,0.029,59.0
2023-01-07T05:04:03,42.805,6.029,-0.014,-0.01,-0.001,99.0,99.0,99.0,13.3,1505.2,329.0,-0.8,1.8,2471.254,13.29,0.017,234.5
2023-01-07T05:07:03,42.805,6.029,0.007,0.005,0.016,100.0,100.0,100.0,13.3,1505.2,332.7,-0.8,1.8,2471.231,13.29,0.008,54.5
2023-01-07T05:10:03,42.805,6.029,-0.035,0.049,0.025,100.0,101.0,99.0,13.3,1505.2,336.5,-0.7,1.8,2471.27,13.29,0.06,324.5
2023-01-07T05:13:03,42.805,6.029,0.0,-0.022,-0.032,100.0,99.0,100.0,13.4,1505.2,335.7,-0.8,1.8,2471.233,13.29,0.022,180.0
2023-01-07T05:16:03,42.805,6.029,0.014,-0.004,0.014,98.0,99.0,100.0,13.3,1505.2,316.5,-0.8,1.8,2471.245,13.29,0.014,105.9
2023-01-07T05:19:03,42.805,6.029,-0.045,0.023,-0.02,99.0,99.0,100.0,13.3,1505.2,330.4,-0.8,1.8,2471.253,13.29,0.05,297.1
2023-01-07T05:22:03,42.805,6.029,0.011,-0.016,-0.005,100.0,100.0,100.0,13.4,1505.2,323.2,-0.8,1.8,2471.261,13.29,0.019,145.5
2023-01-07T05:25:03,42.805,6.029,-0.01,-0.001,0.0,99.0,99.0,100.0,13.4,1505.2,337.3,-0.7,1.8,2471.261,13.29,0.01,264.3
2023-01-07T05:28:03,42.805,6.029,0.0,0.004,0.003,102.0,99.0,101.0,13.3,1505.2,318.1,-0.8,1.8,2471.227,13.29,0.004,0.0
2023-01-07T05:31:03,42.805,6.029,-0.004,0.002,0.001,100.0,100.0,99.0,13.4,1505.2,320.3,-0.8,1.8,2471.277,13.29,0.004,296.6
2023-01-07T05:34:03,42.805,6.029,-0.024,-0.02,-0.04,99.0,100.0,100.0,13.4,1505.2,322.5,-0.8,1.8,2471.247,13.29,0.031,230.2
2023-01-07T05:37:03,42.805,6.029,-0.022,-0.002,-0.024,100.0,99.0,102.0,13.4,1505.2,334.5,-0.7,1.8,2471.245,13.29,0.022,264.8
2023-01-07T05:40:03,42.805,6.029,-0.033,-0.003,-0.042,100.0,100.0,100.0,13.4,1505.2,322.9,-0.8,1.8,2471.241,13.29,0.033,264.8
2023-01-07T05:43:03,42.805,6.029,-0.011,-0.002,-0.03,99.0,101.0,102.0,13.3,1505.2,327.2,-0.8,1.8,2471.258,13.29,0.011,259.7
2023-01-07T05:46:03,42.805,6.029,0.011,-0.015,-0.018,100.0,99.0,101.0,13.4,1505.2,337.5,-0.8,1.8,2471.234,13.29,0.018,143.7
2023-01-07T05:49:03,42.805,6.029,-0.015,-0.027,-0.041,100.0,100.0,101.0,13.4,1505.2,335.4,-0.7,1.8,2471.265,13.29,0.03,209.1
2023-01-07T05:52:03,42.805,6.029,-0.005,-0.018,-0.008,100.0,99.0,99.0,13.4,1505.2,332.6,-0.8,1.8,2471.242,13.29,0.018,195.5
2023-01-07T05:55:03,42.805,6.029,-0.018,0.028,0.014,99.0,101.0,100.0,13.4,1505.2,330.7,-0.8,1.8,2471.285,13.29,0.033,327.3
2023-01-07T05:58:03,42.805,6.029,-0.002,0.0,-0.005,99.0,100.0,100.0,13.3,1505.2,335.8,-0.7,1.8,2471.243,13.29,0.002,270.0
2023-01-07T06:04:03,42.805,6.029,0.0,-0.018,-0.016,101.0,100.0,99.0,13.4,1505.2,318.0,-0.7,1.8,2471.315,13.29,0.018,180.0
2023-01-07T06:07:03,42.805,6.029,-0.002,-0.03,-0.074,100.0,100.0,101.0,13.4,1505.2,328.3,-0.8,1.8,2471.317,13.29,0.03,183.8
2023-01-07T06:10:03,42.805,6.029,0.006,-0.017,-0.011,99.0,100.0,99.0,13.3,1505.2,335.0,-0.8,1.8,2471.318,13.29,0.018,160.6
2023-01-07T06:13:03,42.805,6.029,-0.009,-0.007,-0.013,100.0,100.0,99.0,13.4,1505.2,322.7,-0.8,1.8,2471.296,13.29,0.011,232.1
2023-01-07T06:16:03,42.805,6.029,0.002,-0.013,-0.029,100.0,99.0,99.0,13.4,1505.2,321.9,-0.8,1.8,2471.334,13.29,0.013,171.3
2023-01-07T06:19:03,42.805,6.029,-0.013,-0.014,-0.036,98.0,100.0,100.0,13.4,1505.2,320.9,-0.7,1.8,2471.311,13.29,0.019,222.9
2023-01-07T06:22:03,42.805,6.029,-0.008,-0.009,-0.024,98.0,100.0,100.0,13.3,1505.2,333.8,-0.7,1.8,2471.318,13.29,0.012,221.6
2023-01-07T06:25:03,42.805,6.029,0.002,-0.009,-0.039,100.0,99.0,101.0,13.3,1505.2,334.2,-0.8,1.8,2471.321,13.29,0.009,167.5
2023-01-07T06:28:03,42.805,6.029,-0.01,-0.018,-0.045,99.0,101.0,100.0,13.4,1505.2,324.4,-0.8,1.8,2471.306,13.29,0.02,209.1
2023-01-07T06:31:03,42.805,6.029,-0.01,-0.012,-0.036,99.0,100.0,100.0,13.4,1505.2,328.4,-0.8,1.8,2471.309,13.29,0.015,219.8
2023-01-07T06:34:03,42.805,6.029,-0.022,-0.012,-0.058,99.0,99.0,101.0,13.4,1505.2,328.6,-0.8,1.8,2471.308,13.29,0.025,241.4
2023-01-07T06:37:03,42.805,6.029,-0.01,0.013,0.011,99.0,100.0,100.0,13.4,1505.2,331.0,-0.8,1.8,2471.296,13.29,0.016,322.4
2023-01-07T06:40:03,42.805,6.029,-0.005,-0.026,-0.049,99.0,99.0,100.0,13.4,1505.2,332.6,-0.7,1.8,2471.273,13.29,0.026,190.9
2023-01-07T06:43:03,42.805,6.029,-0.017,0.002,0.005,99.0,99.0,100.0,13.3,1505.2,320.1,-0.8,1.8,2471.321,13.29,0.017,276.7
2023-01-07T06:46:03,42.805,6.029,0.007,0.006,-0.001,99.0,99.0,100.0,13.4,1505.2,324.1,-0.8,1.8,2471.336,13.29,0.009,49.4
2023-01-07T06:49:03,42.805,6.029,0.011,-0.01,0.007,100.0,101.0,100.0,13.3,1505.2,330.2,-0.8,1.8,2471.292,13.29,0.014,132.3
2023-01-07T06:52:03,42.805,6.029,-0.021,-0.014,-0.04,101.0,99.0,100.0,13.4,1505.2,326.7,-0.8,1.8,2471.318,13.29,0.025,236.3
2023-01-07T06:55:03,42.805,6.029,-0.026,0.011,0.005,100.0,101.0,99.0,13.4,1505.2,319.9,-0.8,1.8,2471.318,13.29,0.028,292.9
2023-01-07T06:58:03,42.805,6.029,-0.005,-0.007,-0.013,99.0,100.0,99.0,13.4,1505.2,320.0,-0.8,1.8,2471.302,13.29,0.008,215.5
2023-01-07T07:04:03,42.805,6.029,0.015,-0.011,-0.011,99.0,99.0,100.0,13.4,1505.2,323.4,-0.7,1.8,2471.348,13.29,0.018,126.3
2023-01-07T07:07:03,42.805,6.029,-0.029,0.001,-0.006,99.0,100.0,99.0,13.4,1505.2,322.3,-0.7,1.8,2471.351,13.29,0.029,272.0
2023-01-07T07:10:03,42.805,6.029,0.008,-0.023,-0.023,101.0,100.0,101.0,13.4,1505.2,335.7,-0.8,1.8,2471.326,13.29,0.024,160.8
2023-01-07T07:13:03,42.805,6.029,-0.018,0.007,0.0,99.0,101.0,99.0,13.4,1505.2,323.5,-0.8,1.8,2471.347,13.29,0.019,291.2
2023-01-07T07:16:03,42.805,6.029,0.01,-0.022,-0.027,99.0,99.0,100.0,13.4,1505.2,322.1,-0.8,1.8,2471.352,13.29,0.024,155.6
2023-01-07T07:19:03,42.805,6.029,-0.005,0.002,-0.013,101.0,100.0,100.0,13.4,1505.2,331.5,-0.7,1.8,2471.349,13.29,0.005,291.8
2023-01-07T07:22:03,42.805,6.029,-0.014,0.001,-0.008,101.0,100.0,100.0,13.3,1505.2,331.5,-0.8,1.8,2471.347,13.29,0.014,274.1
2023-01-07T07:25:03,42.805,6.029,-0.017,0.027,0.012,98.0,99.0,101.0,13.4,1505.2,329.1,-0.8,1.8,2471.336,13.29,0.031,327.8
2023-01-07T07:28:03,42.805,6.029,-0.003,-0.019,-0.032,98.0,100.0,101.0,13.4,1505.2,331.5,-0.7,1.8,2471.291,13.29,0.019,189.0
2023-01-07T07:31:03,42.805,6.029,0.004,-0.011,-0.023,99.0,100.0,99.0,13.4,1505.2,320.7,-0.8,1.8,2471.319,13.29,0.011,160.0
2023-01-07T07:34:03,42.805,6.029,-0.026,-0.028,-0.06,100.0,98.0,100.0,13.4,1505.2,319.3,-0.7,1.9,2471.327,13.29,0.038,222.9
2023-01-07T07:37:02,42.805,6.029,0.004,0.001,0.019,99.0,103.0,100.0,13.4,1505.2,335.7,-0.8,1.9,2471.314,13.29,0.004,76.0
2023-01-07T07:40:03,42.805,6.029,0.001,-0.001,-0.01,100.0,100.0,99.0,13.4,1505.2,329.4,-0.8,1.8,2471.326,13.29,0.001,135.0
2023-01-07T07:43:02,42.805,6.029,-0.004,-0.004,-0.012,99.0,98.0,101.0,13.3,1505.2,319.8,-0.8,1.8,2471.326,13.29,0.005,225.0
2023-01-07T07:46:03,42.805,6.029,0.038,-0.038,-0.012,98.0,100.0,100.0,13.3,1505.2,334.2,-0.8,1.8,2471.324,13.3,0.053,135.0
2023-01-07T07:49:03,42.805,6.029,-0.019,-0.024,-0.011,98.0,99.0,100.0,13.4,1505.2,317.2,-0.7,1.8,2471.328,13.3,0.03,218.4
2023-01-07T07:52:02,42.805,6.029,0.008,-0.013,-0.039,99.0,99.0,100.0,13.3,1505.2,329.5,-0.8,1.8,2471.337,13.3,0.015,148.4
2023-01-07T07:55:03,42.805,6.029,0.012,-0.007,-0.014,99.0,101.0,102.0,13.3,1505.2,324.0,-0.8,1.8,2471.326,13.3,0.013,120.3
2023-01-07T07:58:03,42.805,6.029,-0.017,-0.012,-0.019,100.0,99.0,100.0,13.4,1505.2,332.0,-0.8,1.8,2471.298,13.3,0.02,234.8
2023-01-07T08:04:02,42.805,6.029,-0.02,-0.015,-0.028,98.0,98.0,101.0,13.4,1505.2,324.7,-0.7,1.8,2471.346,13.29,0.025,233.1
2023-01-07T08:07:03,42.805,6.029,-0.006,-0.036,-0.067,97.0,101.0,101.0,13.4,1505.2,325.5,-0.8,1.8,2471.374,13.29,0.036,189.5
2023-01-07T08:10:03,42.805,6.029,-0.009,-0.033,-0.057,99.0,100.0,99.0,13.3,1505.2,323.7,-0.8,1.8,2471.336,13.29,0.034,195.3
2023-01-07T08:13:03,42.805,6.029,-0.016,-0.007,-0.029,98.0,101.0,101.0,13.3,1505.2,329.4,-0.8,1.8,2471.383,13.29,0.017,246.4
2023-01-07T08:16:03,42.805,6.029,0.0,0.004,0.001,98.0,99.0,100.0,13.3,1505.2,326.7,-0.8,1.8,2471.321,13.29,0.004,0.0
2023-01-07T08:19:03,42.805,6.029,-0.02,-0.008,-0.032,97.0,101.0,100.0,13.4,1505.2,319.3,-0.8,1.8,2471.345,13.29,0.021,248.2
2023-01-07T08:22:03,42.805,6.029,-0.024,-0.006,-0.009,98.0,100.0,101.0,13.4,1505.2,331.5,-0.8,1.8,2471.369,13.29,0.024,256.0
2023-01-07T08:25:03,42.805,6.029,-0.011,0.012,0.011,100.0,101.0,99.0,13.3,1505.2,326.3,-0.7,1.8,2471.333,13.29,0.016,317.5
2023-01-07T08:28:03,42.805,6.029,-0.004,-0.008,-0.016,98.0,99.0,101.0,13.4,1505.2,323.7,-0.7,1.8,2471.293,13.29,0.008,206.6
2023-01-07T08:31:03,42.805,6.029,-0.013,-0.012,-0.023,101.0,101.0,100.0,13.3,1505.2,335.5,-0.8,1.8,2471.318,13.3,0.017,227.3
2023-01-07T08:34:03,42.805,6.029,-0.01,0.002,-0.025,99.0,99.0,100.0,13.4,1505.2,318.8,-0.8,1.8,2471.354,13.3,0.01,281.3
2023-01-07T08:37:03,42.805,6.029,-0.007,0.016,0.024,98.0,99.0,101.0,13.3,1505.2,336.8,-0.8,1.8,2471.283,13.3,0.017,336.4
2023-01-07T08:40:03,42.805,6.029,-0.023,-0.016,-0.05,99.0,100.0,100.0,13.4,1505.2,317.7,-0.8,1.8,2471.349,13.3,0.028,235.2
2023-01-07T08:43:03,42.805,6.029,-0.007,0.021,0.034,99.0,100.0,99.0,13.4,1505.2,316.0,-0.7,1.8,2471.364,13.3,0.022,341.6
2023-01-07T08:46:03,42.805,6.029,-0.001,0.017,0.033,101.0,101.0,100.0,13.3,1505.2,337.5,-0.8,1.8,2471.316,13.3,0.017,356.6
2023-01-07T08:49:03,42.805,6.029,-0.004,-0.007,-0.004,101.0,99.0,100.0,13.3,1505.2,327.8,-0.8,1.8,2471.308,13.3,0.008,209.7
2023-01-07T08:52:03,42.805,6.029,-0.016,0.035,0.037,102.0,98.0,100.0,13.3,1505.2,326.7,-0.8,1.8,2471.286,13.3,0.038,335.4
2023-01-07T08:55:03,42.805,6.029,-0.008,-0.005,-0.017,100.0,100.0,100.0,13.3,1505.2,321.9,-0.8,1.8,2471.326,13.3,0.009,238.0
2023-01-07T08:58:03,42.805,6.029,-0.042,0.005,-0.022,99.0,100.0,100.0,13.3,1505.2,337.7,-0.8,1.8,2471.343,13.3,0.042,276.8
2023-01-07T09:04:03,42.805,6.029,0.02,-0.023,-0.017,99.0,100.0,101.0,13.3,1505.2,323.5,-0.7,1.8,2471.375,13.29,0.03,139.0
2023-01-07T09:07:03,42.805,6.029,-0.016,-0.021,-0.026,98.0,101.0,99.0,13.4,1505.2,317.4,-0.8,1.8,2471.379,13.29,0.026,217.3
2023-01-07T09:10:03,42.805,6.029,-0.013,0.001,-0.005,100.0,99.0,101.0,13.3,1505.2,323.1,-0.8,1.9,2471.327,13.29,0.013,274.4
2023-01-07T09:13:03,42.805,6.029,0.002,0.005,-0.007,100.0,102.0,101.0,13.3,1505.2,328.2,-0.8,1.9,2471.314,13.29,0.005,21.8
2023-01-07T09:16:03,42.805,6.029,-0.006,-0.022,-0.057,99.0,100.0,104.0,13.4,1505.2,330.7,-0.8,1.8,2471.343,13.29,0.022,195.3
2023-01-07T09:19:03,42.805,6.029,0.0,-0.032,-0.064,100.0,100.0,100.0,13.4,1505.2,335.4,-0.8,1.8,2471.308,13.29,0.032,180.0
2023-01-07T09:22:03,42.805,6.029,-0.003,0.0,0.013,98.0,100.0,101.0,13.3,1505.2,320.8,-0.7,1.8,2471.364,13.29,0.003,270.0
2023-01-07T09:25:03,42.805,6.029,-0.02,-0.069,-0.114,101.0,99.0,99.0,13.4,1505.2,335.9,-0.8,1.8,2471.335,13.29,0.071,196.2
2023-01-07T09:28:03,42.805,6.029,0.012,-0.059,-0.079,99.0,100.0,101.0,13.4,1505.2,335.4,-0.8,1.8,2471.3,13.29,0.06,168.5
2023-01-07T09:31:03,42.805,6.029,-0.04,0.014,-0.02,99.0,100.0,100.0,13.4,1505.2,318.5,-0.8,1.8,2471.342,13.29,0.042,289.3
2023-01-07T09:34:03,42.805,6.029,-0.017,-0.005,-0.026,100.0,100.0,100.0,13.4,1505.2,318.5,-0.8,1.8,2471.283,13.29,0.017,253.6
2023-01-07T09:37:03,42.805,6.029,-0.001,-0.026,-0.043,99.0,101.0,101.0,13.3,1505.2,326.3,-0.8,1.8,2471.315,13.29,0.026,182.2
2023-01-07T09:40:03,42.805,6.029,-0.003,-0.037,-0.064,101.0,98.0,100.0,13.3,1505.2,330.3,-0.8,1.8,2471.297,13.29,0.037,184.6
2023-01-07T09:43:03,42.805,6.029,-0.041,-0.009,-0.024,100.0,100.0,101.0,13.3,1505.2,320.7,-0.8,1.8,2471.302,13.29,0.041,257.6
2023-01-07T09:46:03,42.805,6.029,-0.003,-0.02,-0.03,101.0,102.0,99.0,13.4,1505.2,320.4,-0.8,1.8,2471.321,13.29,0.02,188.5
2023-01-07T09:49:03,42.805,6.029,0.003,-0.006,0.005,99.0,99.0,101.0,13.3,1505.2,335.4,-0.8,1.8,2471.326,13.29,0.006,153.4
2023-01-07T09:52:03,42.805,6.029,-0.051,0.018,-0.022,98.0,100.0,100.0,13.4,1505.2,334.6,-0.7,1.8,2471.329,13.29,0.054,289.4
2023-01-07T09:55:03,42.805,6.029,-0.006,-0.027,-0.023,99.0,99.0,100.0,13.4,1505.2,330.5,-0.8,1.8,2471.284,13.29,0.027,192.5
2023-01-07T09:58:03,42.805,6.029,-0.016,0.007,-0.015,99.0,100.0,100.0,13.4,1505.2,322.8,-0.8,1.8,2471.31,13.29,0.017,293.6
2023-01-07T10:04:03,42.805,6.029,-0.027,-0.043,-0.09,97.0,99.0,101.0,13.4,1505.2,317.4,-0.7,1.8,2471.341,13.29,0.05,212.1